Wind_Speed
7 6 5 4 4 3 2 3 3 3 3 4 4 5 6 6 5 5 5 4 4 3 3 3 3 2 3 4 5 6 7 8 9 10 11 11 12 12 13 13 13 13 14 14 13 13 13 13 13
9 7 6 5 4 3 4 4 3 3 4 4 4 6 7 7 6 6 5 4 4 4 4 3 3 3 3 5 6 7 8 9 10 10 11 12 12 13 13 13 14 14 15 15 14 14 14 14 14
10 8 7 6 6 5 5 5 4 4 3 4 4 5 6 6 6 6 5 4 4 4 4 3 3 3 4 5 7 8 9 9 10 10 11 12 12 12 13 14 14 15 15 15 15 15 15 15 15
11 10 9 8 6 5 5 5 4 3 3 3 4 5 5 5 6 5 4 4 4 4 3 3 4 4 5 6 7 8 9 9 9 10 11 11 11 12 12 12 13 14 14 14 15 15 16 16 15
13 11 10 9 8 7 6 6 5 4 4 3 3 5 5 5 5 4 4 4 3 3 3 4 4 5 6 6 7 8 8 8 9 10 10 10 11 12 12 12 13 13 14 14 15 16 15 16 15
15 13 12 11 10 9 8 7 5 5 4 4 4 5 5 6 5 4 4 3 3 3 3 4 4 4 5 6 7 7 7 8 9 9 10 10 11 11 12 13 13 13 14 14 15 16 16 16 17
17 15 13 12 11 10 9 8 7 6 5 5 5 5 5 6 6 5 5 4 4 4 3 4 4 4 4 5 6 6 7 8 9 9 10 11 11 12 12 13 13 13 13 14 15 15 16 16 17
18 16 15 14 12 11 10 8 8 7 7 7 7 6 6 6 6 6 5 4 4 3 3 4 3 3 4 5 6 6 7 8 9 10 11 12 12 12 13 13 13 13 14 14 15 16 16 16 16
19 18 16 15 14 13 11 10 9 8 8 8 7 7 6 6 6 6 5 5 4 4 3 3 3 3 4 5 6 7 8 9 10 11 12 13 13 13 13 13 14 14 14 15 15 16 16 16 16
20 19 17 17 16 14 12 12 10 8 8 8 7 7 6 6 6 6 5 5 4 4 3 3 3 4 4 5 6 7 9 10 11 12 13 13 13 13 13 14 14 15 15 15 15 16 16 17 17
19 18 18 17 17 15 13 12 11 9 9 8 7 7 7 7 6 6 6 5 5 4 4 4 3 4 4 5 7 8 10 11 12 13 13 13 13 13 14 14 15 15 15 16 16 16 17 17 17
19 18 17 17 16 16 14 13 12 10 10 9 8 8 8 7 6 6 6 5 4 4 4 3 3 4 5 6 8 9 11 12 13 13 13 13 14 14 14 15 15 15 15 16 16 16 16 17 17
19 18 17 16 15 15 15 14 11 11 11 9 9 8 8 8 7 6 6 5 4 4 4 3 4 5 6 7 8 10 11 13 13 14 14 14 14 14 14 15 15 15 16 16 16 16 17 17 17
18 17 16 15 14 14 14 13 12 11 11 10 10 9 8 7 7 7 6 5 5 4 4 4 5 6 6 7 9 10 11 12 13 14 14 14 14 14 14 15 15 15 15 15 15 15 16 17 17
17 16 14 14 13 12 11 12 12 11 11 11 11 10 9 8 7 7 7 6 5 4 4 4 5 6 7 8 9 10 11 13 13 14 14 14 14 14 14 15 15 15 15 14 14 14 15 16 16
16 15 13 12 12 11 10 11 12 11 11 11 11 10 9 9 8 8 7 6 5 5 4 5 6 6 7 8 9 10 11 12 13 14 14 14 14 14 15 15 16 16 15 15 14 14 14 14 15
15 14 13 11 10 10 10 11 11 11 10 10 10 10 9 9 8 8 7 7 6 5 5 5 6 6 7 9 9 10 11 12 13 13 14 15 15 15 16 16 16 16 15 15 14 13 13 13 13
14 14 12 11 9 10 10 9 10 10 9 8 9 9 9 9 8 8 8 7 6 6 5 6 6 7 8 9 10 11 11 12 13 13 14 15 16 16 16 16 16 16 15 14 13 12 12 12 12
14 13 12 10 9 10 10 10 10 9 8 7 7 9 9 9 8 8 7 7 6 6 6 6 7 7 8 9 10 11 11 12 13 13 15 16 16 17 17 16 16 16 15 13 12 11 10 10 11
12 11 11 10 10 9 9 9 8 7 6 7 7 8 9 9 9 8 8 7 7 7 7 7 7 8 9 9 10 11 12 12 13 14 15 16 16 17 17 17 16 16 15 13 12 10 9 9 10
11 11 11 10 10 9 8 7 7 6 6 6 7 8 8 8 8 8 8 8 7 7 8 7 7 8 9 10 10 11 12 12 13 14 15 16 17 17 17 17 16 16 15 13 12 10 9 8 8
11 11 10 9 9 9 8 7 6 6 5 6 6 7 8 8 8 8 8 8 7 8 8 8 8 9 9 10 10 11 12 12 13 14 15 16 17 17 17 17 17 16 15 13 12 10 8 7 6
11 11 10 10 10 9 8 7 6 6 5 5 5 6 7 7 8 8 8 7 7 8 8 9 9 9 10 10 10 11 11 12 13 14 14 16 17 17 17 17 16 15 14 13 11 9 7 6 5
11 11 10 10 10 8 8 7 6 5 4 5 5 5 6 6 7 7 7 7 8 8 8 9 9 10 10 10 10 11 11 12 13 14 14 15 16 17 17 17 16 15 14 13 11 9 7 5 4
11 11 10 10 9 8 8 7 6 4 4 4 4 5 6 6 6 7 7 7 8 8 8 8 9 10 10 10 10 11 11 12 13 14 14 15 16 17 17 16 15 14 13 12 11 9 7 6 5
11 11 11 9 8 7 7 6 5 4 4 4 4 5 5 6 6 7 7 8 8 8 8 9 9 10 10 10 11 11 11 12 13 13 14 15 15 16 16 16 15 14 13 12 11 10 8 6 5
10 10 9 9 7 7 6 5 4 4 3 3 4 4 5 5 6 6 7 7 8 9 9 9 10 10 10 11 11 11 12 12 13 13 14 14 15 15 15 15 15 14 13 12 11 10 8 7 6
9 9 9 8 7 7 6 5 4 3 2 2 3 4 4 5 6 6 7 8 9 10 10 10 10 11 11 11 11 12 12 12 13 13 14 14 15 15 15 14 14 14 13 12 11 10 9 7 6
8 8 7 6 7 7 5 5 4 3 3 3 3 4 5 5 6 7 7 9 10 11 11 11 12 12 12 12 12 13 13 13 13 14 14 14 14 15 15 14 14 14 14 13 12 11 9 8 7
7 6 6 6 5 5 5 4 4 4 4 3 4 4 5 5 6 7 8 9 10 11 12 12 13 13 13 13 13 14 14 14 14 14 14 14 15 15 14 14 13 13 13 13 12 11 10 9 7
Wind_Direction
267 278 290 278 250 242 272 282 277 278 257 252 241 225 212 206 213 215 218 218 223 231 242 257 267 270 286 293 297 295 295 293 292 290 288 285 283 281 279 276 276 276 271 266 264 263 262 260 256
256 263 275 264 258 265 282 274 263 276 266 253 243 223 214 208 208 216 211 215 221 230 244 257 262 275 293 298 300 298 297 297 296 296 293 290 287 284 283 279 276 275 273 269 265 264 263 260 258
247 248 255 258 264 267 275 271 262 277 271 255 240 214 209 211 209 206 207 216 223 234 247 255 265 282 296 301 303 304 302 301 298 297 296 295 293 289 285 281 277 274 273 271 267 266 262 260 259
244 245 244 249 257 263 272 271 267 271 263 247 222 212 209 204 202 204 206 216 229 239 251 262 275 290 294 298 304 306 306 305 304 302 300 298 295 291 287 285 282 277 273 271 269 268 263 261 261
242 243 243 246 254 262 268 270 259 258 259 246 216 205 205 202 200 203 209 217 232 248 261 268 283 295 304 302 305 307 307 309 310 308 305 303 299 294 292 288 284 280 275 273 270 269 267 260 259
238 238 240 243 250 257 262 260 255 251 242 232 219 207 209 206 205 206 211 222 240 258 266 270 293 303 308 306 306 307 310 313 315 314 311 309 305 302 299 294 289 284 278 274 272 271 268 263 257
234 235 237 240 246 252 256 255 256 248 238 235 225 219 215 208 212 219 222 226 242 257 263 279 294 300 305 310 314 316 317 318 318 316 313 310 308 305 303 298 294 287 282 276 273 272 270 265 259
231 233 234 236 241 246 248 252 252 250 240 232 223 222 222 216 218 225 227 228 242 254 264 281 285 297 310 317 319 320 320 320 319 318 316 314 310 306 304 302 297 291 285 278 273 271 269 266 260
229 231 233 235 237 240 243 246 246 245 242 231 230 229 218 219 220 225 229 234 234 244 262 273 274 292 307 317 320 322 323 323 322 320 318 315 312 308 304 301 298 295 290 284 277 272 267 264 261
228 229 230 232 236 237 241 243 241 237 238 234 231 225 220 220 221 225 230 229 232 240 247 256 269 289 307 320 324 325 326 326 324 322 320 317 315 312 307 303 300 296 292 288 282 277 271 266 261
225 226 228 232 237 237 237 237 235 230 230 229 229 226 222 219 221 225 221 221 230 234 241 256 273 296 310 319 324 325 326 328 326 324 322 320 318 316 312 307 303 299 294 289 284 279 272 267 262
224 224 227 232 237 236 234 232 234 230 229 229 228 228 223 221 221 220 216 218 220 229 234 248 278 300 310 316 322 324 327 329 329 329 326 323 321 318 315 310 306 302 298 292 285 279 273 267 261
222 224 227 229 232 235 232 230 231 232 228 224 224 224 222 219 220 216 214 219 219 226 239 263 286 302 309 315 321 325 328 330 331 330 328 326 324 321 318 314 310 306 300 295 287 280 274 267 263
218 222 224 225 228 232 235 231 228 228 223 221 223 219 217 215 215 214 215 218 223 232 252 275 289 301 308 316 320 324 328 331 332 332 330 328 326 324 322 320 316 313 307 300 292 283 274 268 263
216 219 219 222 225 229 232 228 227 228 223 221 225 221 216 210 212 213 213 219 228 238 258 279 291 297 304 314 320 325 331 334 335 335 333 331 329 326 325 324 322 317 312 304 295 287 278 270 264
212 215 218 219 223 227 228 226 224 224 220 220 223 219 216 213 212 212 216 227 238 248 262 278 294 300 310 317 321 326 333 336 338 339 338 336 334 330 328 327 325 322 317 308 298 289 281 273 264
206 210 215 217 217 222 223 225 221 217 216 216 218 216 214 212 213 217 222 229 238 244 256 274 291 304 312 316 321 327 332 336 339 341 342 342 339 335 331 329 328 327 322 314 303 293 283 274 265
199 202 208 211 215 214 213 213 209 208 207 211 215 213 212 211 218 223 223 228 235 244 259 274 289 301 311 316 322 327 332 337 340 343 344 344 342 340 337 334 333 330 326 322 313 300 288 277 265
193 198 202 206 207 203 202 200 197 201 204 210 215 215 213 217 220 224 229 229 239 249 261 274 286 299 309 316 323 328 333 339 342 343 344 344 343 342 341 339 338 335 331 327 322 311 295 281 267
186 191 192 195 191 190 191 193 196 204 210 214 220 217 215 219 222 230 237 238 245 252 262 274 286 299 307 315 323 327 332 338 341 343 345 345 345 344 343 342 340 338 335 333 327 319 303 287 269
180 180 181 179 178 181 181 184 190 196 201 207 213 216 218 223 227 234 241 244 250 260 266 276 287 298 306 313 320 326 331 336 341 343 345 347 347 347 346 345 343 341 339 337 333 325 314 296 273
168 169 169 169 173 175 172 174 182 184 191 198 204 210 214 220 227 235 242 248 256 264 273 280 286 296 304 310 317 323 330 335 340 343 345 348 349 348 348 346 345 344 343 341 338 331 322 307 281
162 163 160 158 163 165 166 167 181 185 192 198 200 205 212 220 227 236 246 255 265 273 277 282 288 294 300 306 313 319 327 333 338 342 344 347 349 349 349 348 347 347 346 345 343 339 332 318 292
151 150 152 151 151 161 170 172 178 180 182 188 193 201 211 220 232 244 253 260 270 277 279 282 286 290 294 302 309 316 323 329 335 340 342 345 348 349 350 350 349 349 349 350 350 348 343 331 307
148 148 145 144 150 162 168 170 174 178 180 188 199 208 215 221 236 248 257 264 273 279 282 288 289 291 293 299 306 312 319 325 331 336 340 342 345 348 350 350 350 351 351 353 352 350 347 336 316
147 152 152 158 162 164 164 166 169 173 187 201 215 220 225 231 240 251 256 266 274 281 286 291 295 296 297 300 304 309 315 322 327 333 337 341 344 347 350 351 352 351 352 352 352 349 343 335 322
146 152 154 156 161 166 163 162 169 173 193 219 226 228 230 236 247 255 262 270 276 281 287 288 294 297 299 302 303 306 312 318 323 328 333 338 341 345 349 352 353 352 353 353 351 349 345 337 327
146 150 154 156 160 162 165 176 179 176 197 225 226 232 241 250 258 265 270 275 279 282 285 287 292 294 298 301 302 305 309 314 320 324 328 332 336 341 345 348 352 353 353 354 352 348 343 336 329
145 148 151 154 161 165 176 187 188 202 220 238 246 251 258 264 271 276 280 284 285 286 288 288 291 292 295 299 301 304 307 310 314 319 324 327 331 335 340 343 346 349 351 350 348 347 343 337 329
151 151 157 166 170 178 194 209 208 220 232 248 258 263 271 275 281 287 290 293 294 293 292 292 293 293 294 297 299 300 303 306 309 314 318 322 326 330 333 336 339 343 345 347 346 344 340 337 334
Height
5870 5869 5870 5870 5871 5870 5870 5870 5870 5869 5869 5870 5870 5870 5871 5872 5873 5876 5874 5873 5873 5874 5873 5873 5873 5873 5873 5873 5873 5872 5872 5871 5871 5870 5869 5869 5868 5867 5867 5866 5866 5865 5865 5866 5866 5866 5866 5867 5867
5868 5869 5870 5870 5869 5869 5870 5869 5869 5868 5868 5868 5868 5869 5870 5870 5871 5872 5872 5872 5872 5873 5873 5873 5872 5872 5872 5872 5871 5871 5870 5869 5869 5868 5867 5866 5865 5865 5864 5863 5863 5863 5863 5863 5863 5863 5863 5864 5864
5866 5867 5869 5869 5869 5869 5869 5868 5868 5867 5867 5867 5867 5868 5869 5870 5870 5870 5871 5871 5871 5872 5872 5872 5872 5871 5871 5870 5870 5869 5868 5868 5867 5866 5865 5864 5863 5862 5862 5861 5860 5860 5860 5859 5860 5860 5860 5861 5862
5864 5866 5868 5868 5867 5867 5867 5867 5867 5866 5866 5866 5866 5867 5868 5868 5869 5870 5870 5870 5870 5871 5871 5871 5870 5870 5870 5869 5868 5868 5867 5866 5865 5863 5862 5861 5860 5860 5859 5858 5857 5857 5857 5857 5857 5857 5857 5858 5858
5862 5864 5865 5866 5866 5866 5866 5866 5866 5865 5865 5865 5865 5866 5866 5867 5868 5868 5869 5869 5869 5870 5870 5869 5869 5869 5868 5868 5867 5866 5865 5864 5863 5862 5860 5859 5858 5857 5856 5855 5855 5854 5854 5854 5854 5853 5854 5854 5855
5860 5861 5863 5863 5864 5864 5864 5864 5864 5864 5865 5865 5865 5865 5866 5866 5866 5867 5868 5868 5868 5868 5868 5868 5868 5868 5867 5867 5866 5865 5864 5863 5861 5860 5859 5857 5856 5855 5854 5853 5852 5851 5851 5851 5850 5850 5850 5851 5851
5857 5859 5860 5861 5862 5862 5863 5863 5863 5863 5863 5864 5864 5864 5865 5865 5866 5866 5867 5867 5867 5867 5867 5867 5867 5867 5866 5865 5865 5864 5863 5861 5860 5859 5857 5856 5854 5853 5851 5850 5849 5848 5848 5847 5847 5847 5847 5847 5848
5853 5856 5857 5858 5859 5860 5861 5861 5861 5862 5862 5863 5863 5863 5864 5864 5864 5865 5865 5866 5866 5866 5866 5866 5866 5866 5865 5864 5863 5863 5861 5860 5859 5857 5855 5854 5852 5851 5849 5848 5847 5846 5845 5844 5844 5844 5844 5844 5844
5849 5853 5854 5855 5856 5857 5858 5859 5860 5860 5860 5861 5862 5862 5863 5863 5863 5864 5865 5865 5865 5865 5865 5865 5865 5865 5864 5863 5862 5861 5860 5859 5857 5855 5854 5852 5850 5848 5847 5845 5844 5843 5842 5841 5840 5840 5840 5840 5840
5846 5849 5851 5852 5853 5855 5856 5857 5858 5858 5859 5860 5860 5861 5861 5862 5863 5863 5864 5864 5864 5865 5865 5865 5864 5864 5863 5862 5861 5860 5859 5857 5855 5854 5852 5850 5848 5846 5844 5842 5841 5840 5839 5837 5837 5836 5836 5836 5836
5842 5845 5847 5848 5850 5852 5853 5854 5855 5856 5858 5858 5859 5860 5860 5861 5862 5862 5862 5863 5863 5864 5864 5864 5863 5863 5862 5862 5860 5859 5858 5856 5854 5852 5850 5847 5845 5843 5841 5840 5838 5836 5835 5834 5833 5832 5832 5831 5832
5838 5841 5843 5845 5847 5849 5850 5852 5853 5854 5856 5857 5857 5858 5859 5860 5860 5861 5861 5862 5863 5863 5863 5863 5863 5862 5861 5860 5859 5858 5856 5854 5852 5849 5847 5845 5843 5841 5839 5837 5835 5833 5831 5830 5829 5828 5828 5827 5828
5835 5838 5840 5842 5844 5846 5848 5849 5851 5852 5854 5855 5856 5857 5858 5858 5859 5860 5860 5861 5862 5862 5862 5862 5862 5861 5861 5859 5858 5856 5854 5852 5850 5847 5845 5843 5841 5838 5836 5834 5832 5830 5828 5826 5825 5824 5823 5823 5824
5832 5835 5838 5840 5842 5843 5845 5847 5849 5851 5852 5853 5855 5856 5857 5857 5858 5859 5860 5860 5861 5861 5861 5861 5861 5860 5860 5858 5857 5855 5853 5851 5848 5846 5843 5841 5838 5836 5834 5831 5829 5826 5824 5822 5820 5820 5819 5819 5819
5830 5833 5836 5838 5840 5841 5843 5845 5847 5849 5850 5852 5853 5854 5855 5856 5857 5858 5859 5860 5860 5860 5860 5860 5860 5859 5858 5857 5856 5854 5852 5849 5847 5844 5841 5838 5836 5833 5831 5828 5825 5823 5820 5818 5817 5815 5815 5815 5815
5828 5831 5834 5836 5838 5839 5843 5844 5845 5847 5848 5850 5851 5852 5854 5855 5856 5857 5858 5859 5859 5860 5860 5860 5859 5858 5857 5856 5854 5853 5850 5848 5845 5842 5839 5836 5834 5831 5828 5826 5823 5820 5817 5815 5813 5811 5811 5810 5810
5826 5830 5832 5835 5836 5838 5840 5842 5843 5845 5847 5848 5850 5851 5852 5854 5855 5856 5857 5858 5858 5859 5859 5859 5858 5857 5856 5855 5853 5851 5849 5846 5843 5841 5838 5835 5832 5829 5826 5823 5820 5817 5814 5811 5809 5807 5807 5806 5806
5826 5828 5831 5833 5835 5836 5838 5840 5842 5844 5846 5847 5848 5850 5851 5853 5854 5855 5856 5857 5857 5858 5858 5858 5857 5856 5855 5854 5852 5850 5848 5845 5842 5839 5836 5833 5830 5827 5823 5820 5817 5814 5811 5808 5806 5804 5803 5802 5802
5824 5827 5829 5832 5834 5835 5837 5839 5841 5843 5845 5846 5848 5849 5850 5852 5853 5854 5855 5856 5856 5857 5857 5857 5856 5855 5854 5853 5851 5849 5847 5844 5841 5838 5835 5831 5828 5825 5821 5818 5815 5811 5808 5805 5803 5801 5800 5799 5799
5823 5826 5829 5831 5833 5835 5837 5839 5841 5842 5844 5845 5847 5848 5849 5851 5852 5853 5854 5855 5855 5855 5856 5855 5855 5854 5853 5851 5850 5848 5845 5843 5840 5837 5834 5830 5827 5823 5820 5816 5813 5809 5806 5803 5800 5798 5797 5796 5796
5823 5826 5828 5830 5833 5835 5837 5839 5841 5842 5843 5844 5845 5847 5848 5850 5851 5852 5853 5854 5854 5854 5854 5854 5853 5853 5852 5850 5848 5847 5844 5842 5839 5836 5832 5829 5825 5822 5818 5815 5811 5808 5804 5801 5798 5796 5795 5794 5793
5823 5826 5828 5830 5833 5835 5838 5840 5841 5841 5842 5843 5844 5846 5847 5848 5850 5851 5852 5852 5853 5853 5853 5852 5852 5851 5850 5849 5847 5845 5843 5841 5838 5835 5831 5828 5824 5821 5817 5813 5810 5806 5803 5800 5797 5795 5793 5792 5792
5824 5826 5828 5831 5833 5836 5838 5840 5841 5841 5842 5843 5844 5845 5846 5848 5849 5850 5851 5851 5851 5851 5851 5851 5851 5850 5849 5847 5846 5844 5842 5839 5836 5833 5830 5827 5823 5820 5816 5812 5808 5805 5802 5799 5796 5793 5792 5791 5790
5825 5827 5829 5832 5834 5837 5838 5840 5841 5841 5842 5843 5843 5844 5846 5847 5848 5849 5849 5850 5850 5850 5850 5849 5849 5848 5847 5845 5844 5842 5840 5838 5835 5832 5829 5826 5822 5819 5815 5811 5807 5804 5801 5798 5795 5793 5791 5790 5790
5826 5829 5832 5833 5835 5837 5838 5839 5841 5840 5841 5842 5843 5844 5845 5846 5847 5847 5848 5849 5849 5848 5848 5847 5847 5846 5845 5843 5842 5840 5838 5836 5834 5831 5828 5825 5821 5818 5814 5810 5807 5804 5801 5798 5795 5793 5791 5790 5789
5827 5830 5833 5836 5836 5837 5838 5839 5841 5840 5841 5842 5842 5843 5844 5845 5846 5846 5847 5847 5847 5847 5846 5846 5845 5844 5843 5841 5840 5838 5837 5834 5832 5829 5826 5823 5820 5817 5813 5810 5807 5803 5800 5798 5795 5793 5791 5789 5788
5828 5830 5833 5835 5836 5838 5838 5839 5840 5840 5841 5841 5842 5842 5843 5844 5844 5845 5845 5845 5845 5845 5844 5843 5843 5842 5841 5839 5838 5836 5835 5833 5830 5828 5825 5822 5819 5816 5813 5810 5806 5803 5800 5797 5795 5793 5790 5789 5787
5830 5831 5833 5835 5836 5838 5839 5839 5840 5840 5840 5841 5841 5842 5842 5842 5843 5843 5843 5843 5843 5842 5842 5841 5840 5839 5838 5837 5836 5834 5833 5831 5828 5826 5824 5821 5818 5815 5812 5809 5806 5803 5800 5797 5795 5792 5790 5788 5787
5831 5833 5833 5835 5836 5838 5839 5841 5839 5839 5840 5840 5840 5841 5841 5841 5841 5841 5841 5841 5840 5840 5839 5838 5838 5837 5836 5834 5833 5832 5830 5828 5827 5824 5822 5820 5817 5814 5811 5809 5806 5803 5800 5797 5794 5792 5790 5788 5786
5831 5832 5834 5835 5836 5837 5838 5841 5838 5838 5839 5839 5839 5839 5839 5839 5839 5839 5839 5839 5838 5837 5837 5836 5835 5834 5833 5832 5830 5829 5828 5826 5824 5822 5820 5818 5815 5813 5810 5808 5805 5802 5800 5797 5794 5791 5789 5787 5785